Location: Newark
(43.0000°N, 1.6781°W)
Time: 06:54:41
(UTC+00:00)

Courier 1B Rocket - Pass Details

Date: 25 April 2021
Orbit: 920 x 1202 km, 28.2° (Epoch: 09 May)

Event Time Altitude Azimuth Distance (km) Brightness Sun altitude
Rises 19:25:18 0° 243° (WSW) 3,599 8.6 -5.0°
Reaches altitude 10° 19:28:27 10° 228° (SW) 2,688 7.7 -5.5°
Maximum altitude 19:33:17 22° 180° (S) 2,007 6.4 -6.3°
Drops below altitude 10° 19:38:20 10° 132° (SE) 2,826 6.8 -7.1°
Enters shadow 19:39:06 - 128° (SE) 3,033 6.9 -7.2°
